Regional Weather Roundup
Issued by NWS

Home | Current Version | Previous Version | Graphics & Text | Print | Product List | Glossary On
Versions: 1 2 3 4 5 6 7 8 9 10 11 12 13 14 15 16 17 18 19 20 21 22 23 24 25 26 27 28 29 30 31 32 33 34 35 36 37 38 39 40 41 42 43 44 45 46 47 48 49 50
000
ASUS43 KLOT 251210
RWRIL

ILLINOIS REGIONAL WEATHER ROUNDUP
NATIONAL WEATHER SERVICE CHICAGO/ROMEOVILLE IL
600 AM CST THU DEC 25 2014

NOTE: "FAIR" INDICATES FEW OR NO CLOUDS BELOW 12,000 FEET WITH NO
SIGNIFICANT WEATHER AND/OR OBSTRUCTIONS TO VISIBILITY.

* THESE STATIONS ARE NOT UNDER NWS QUALITY CONTROL. THEY ALSO MAY NOT
  REPORT WEATHER SUCH AS PRECIPITATION OR FOG.

ILZ001-002-007-009-015-016-024-251300-
NORTHWEST ILLINOIS

CITY           SKY/WX    TMP DP  RH WIND       PRES   REMARKS
MOLINE         CLOUDY    34  27  75 SW9       29.84R WCI  27
6HR MIN TEMP:  33; 6HR MAX TEMP:  35; 6HR PCP: TRACE;

STERLING*      CLOUDY    34  27  75 W13       29.84R WCI  25
SAVANNA*       CLOUDY    34  29  83 SW7       29.83R WCI  28
$$

ILZ003-004-008-010-011-017-018-251300-
NORTH CENTRAL ILLINOIS

CITY           SKY/WX    TMP DP  RH WIND       PRES   REMARKS
ROCKFORD       CLOUDY    33  26  75 W12G20    29.84R WCI  24
6HR MIN TEMP:  33; 6HR MAX TEMP:  36;

FREEPORT*      CLOUDY    32  28  86 W16G22    29.82R WCI  21
ROCHELLE*      CLOUDY    32  29  90 SW13      29.84R WCI  22
DE KALB*       CLOUDY    31  28  88 SW14G20   29.83R WCI  21
PERU*          CLOUDY    35  30  83 W15       29.87R WCI  25
$$

ILZ005-006-012>014-019>023-251300-
NORTHEAST ILLINOIS

CITY           SKY/WX    TMP DP  RH WIND       PRES   REMARKS
CHICAGO-OHARE  CLOUDY    34  27  75 W13G22    29.83R WCI  25
6HR MIN TEMP:  34; 6HR MAX TEMP:  36;

CHICAGO-MIDWAY CLOUDY    36  29  75 SW10      29.85R WCI  28
6HR MIN TEMP:  35; 6HR MAX TEMP:  38;

AURORA         CLOUDY    34  28  79 W15       29.85R WCI  24
6HR MIN TEMP:  33; 6HR MAX TEMP:  36;

LANSING*       CLOUDY    34  30  85 W9        29.87R WCI  27
JOLIET*        CLOUDY    33  29  85 W8        29.87R WCI  27
WAUKEGAN       CLOUDY    34  27  75 SW7       29.80R WCI  28
6HR MIN TEMP:  34; 6HR MAX TEMP:  36;

DUPAGE AIRPORT CLOUDY    34  29  82 SW10      29.83R WCI  26
6HR MIN TEMP:  34; 6HR MAX TEMP:  36;

KANKAKEE*      CLOUDY    34  31  88 SW10      29.89R WCI  26
WHEELING       CLOUDY    34  27  75 W10       29.85R WCI  26
6HR MIN TEMP:  34; 6HR MAX TEMP:  37;

MORRIS*        CLOUDY    34  32  92 W6        29.87R WCI  29
ROMEOVILLE*    CLOUDY    33  30  88 W14       29.87R WCI  24
NORTHERLY ISL    N/A     35  27  73 W15         N/A  WCI  25
$$

LMZ740>746-251300-
SOUTHERN LAKE MICHIGAN

STATION/POSITION SKY/WX   TEMP    WIND        PRES    VSBY  WAVE
                          AIR SEA DIR/SP/G                  HT/PER
                          (F)     (DEG/KT/KT) (MB)    (MI)  (FT/S)
WAUKEGAN HARBOR            35                   N/A
HARRISON CRIB              34     260/ 18/ 22   N/A
BURNHAM HARBOR             35     220/  7/ 15   N/A
CALUMET HARBOR             35     240/  8/ 13 1009.8R
MICHIGAN CITY              35     220/ 23/ 28   N/A
$$

ILZ025>027-034>036-040-047-049-050-058-095>099-251300-
WEST-CENTRAL ILLINOIS

CITY           SKY/WX    TMP DP  RH WIND       PRES   REMARKS
QUINCY         PTCLDY    33  28  81 S8        29.89R WCI  26
GALESBURG*     CLOUDY    33  30  90 SW9       29.87R WCI  25
MACOMB*        CLOUDY    34  30  86 SW14      29.90R WCI  24
JACKSONVILLE*  CLOUDY    37  31  81 SW8       29.93R WCI  30
PITTSFIELD*    PTCLDY    35  31  85 S6        29.93R WCI  30
$$

ILZ028>032-037-038-041>044-048-051>054-059>061-251300-
CENTRAL ILLINOIS

CITY           SKY/WX    TMP DP  RH WIND       PRES   REMARKS
PONTIAC        CLOUDY    35  32  88 SW7       29.90R WCI  29
BLOOMINGTON    CLOUDY    35  31  86 W12G18    29.91R WCI  27
DECATUR        CLOUDY    36  31  82 SW9       29.93R WCI  29
PEORIA         CLOUDY    37  28  70 SW14      29.90R WCI  28
6HR MIN TEMP:  36; 6HR MAX TEMP:  37;

LACON*         CLOUDY    34  28  78 W7        29.88R WCI  28
LINCOLN*       CLOUDY    37  31  81 SW3       29.92R
SPRINGFIELD    CLOUDY    37  30  75 SW10      29.93R WCI  30
6HR MIN TEMP:  36; 6HR MAX TEMP:  37;

TAYLORVILLE    CLOUDY    34  32  93 SW12      29.95R WCI  25
$$

ILZ033-039-045-046-055>057-062-063-251300-
EAST-CENTRAL ILLINOIS

CITY           SKY/WX    TMP DP  RH WIND       PRES   REMARKS
CHAMPAIGN      CLOUDY    35  31  85 SW10      29.93R WCI  27
DANVILLE*      CLOUDY    35  31  87 W10       29.90R WCI  27
RANTOUL*       CLOUDY    37  32  84 W9        29.92R WCI  30
MATTOON        CLOUDY    36  30  79 SW7       29.95R WCI  30
PARIS*         CLOUDY    36  32  86 W8        29.97R WCI  29
$$

ILZ079-100>102-251300-
SOUTHWEST ILLINOIS

CITY           SKY/WX    TMP DP  RH WIND       PRES   REMARKS
BELLEVILLE     CLOUDY    36  32  85 S6        29.99R WCI  32
CAHOKIA*       CLEAR     35  30  82 SE5       29.98R WCI  31
SPARTA*        CLEAR     35  31  85 S3        30.01R
$$

ILZ064>066-069>071-074>076-080>082-084>086-088>090-092>094-251300-
SOUTH-CENTRAL ILLINOIS

CITY           SKY/WX    TMP DP  RH WIND       PRES   REMARKS
CARBONDALE     PTCLDY    36  29  75 SW7       30.03R WCI  30
6HR MIN TEMP:  36; 6HR MAX TEMP:  39; 6HR PCP: TRACE;

CAIRO*         CLEAR     39  32  76 SW5       30.06R
EFFINGHAM*     CLOUDY    37  32  82 S6        29.99R WCI  32
MARION         CLOUDY    37  34  87 S8        30.04R WCI  31
MT. VERNON     CLOUDY    37  30  75 SW12      30.01R WCI  30
CENTRALIA*     CLOUDY    37  32  83 SW8       30.00R WCI  30
SALEM*         CLOUDY    39  34  82 SW8       30.00R WCI  33
METROPOLIS*    CLOUDY    39  33  77 CALM      30.06R
$$

ILZ067-068-072-073-078-083-087-091-251300-
SOUTHEAST ILLINOIS

CITY           SKY/WX    TMP DP  RH WIND       PRES   REMARKS
LAWRENCEVILLE  CLOUDY    38  33  82 SW7       30.01R WCI  33
FLORA*         CLEAR     37  34  89 SW8       30.00R WCI  31
FAIRFIELD*     CLOUDY    38  33  80 SW7       30.00R WCI  33
HARRISBURG*    MOCLDY    37  33  87 SW5       30.04R WCI  33
ROBINSON*      CLOUDY    37  33  88 SW8       30.01R WCI  30
CARMI*         CLOUDY    40  35  83 SW8       30.03R
$$

ABBREVIATIONS USED IN REMARKS
   TC - TEMPERATURE IN CELSIUS
  WCI - WIND CHILL INDEX
   HX - HEAT INDEX
  VSB - VISIBILITY
$$




USA.gov is the U.S. government's official web portal to all federal, state and local government web resources and services.